Regional Weather Roundup
Issued by NWS

Home | Current Version | Previous Version | Graphics & Text | Print | Product List | Glossary On
Versions: 1 2 3 4 5 6 7 8 9 10 11 12 13 14 15 16 17 18 19 20 21 22 23 24 25 26 27 28 29 30 31 32 33 34 35 36 37 38 39 40 41 42 43 44 45 46 47 48 49 50
000
ASUS43 KLOT 281103
RWRIL

ILLINOIS REGIONAL WEATHER ROUNDUP
NATIONAL WEATHER SERVICE CHICAGO/ROMEOVILLE IL
600 AM CDT TUE MAR 28 2017

NOTE: "FAIR" INDICATES FEW OR NO CLOUDS BELOW 12,000 FEET WITH NO
SIGNIFICANT WEATHER AND/OR OBSTRUCTIONS TO VISIBILITY.

* THESE STATIONS ARE NOT UNDER NWS QUALITY CONTROL. THEY ALSO MAY NOT
  REPORT WEATHER SUCH AS PRECIPITATION OR FOG.

ILZ001-002-007-009-015-016-024-281200-
NORTHWEST ILLINOIS

CITY           SKY/WX    TMP DP  RH WIND       PRES   REMARKS
MOLINE         CLOUDY    49  44  83 N3        30.03R
STERLING*      CLOUDY    45  43  93 E8        30.05R FOG
SAVANNA*       CLOUDY    46  45  97 N5        30.06R FOG
$$

ILZ003-004-008-010-011-017-018-281200-
NORTH CENTRAL ILLINOIS

CITY           SKY/WX    TMP DP  RH WIND       PRES   REMARKS
ROCKFORD       CLOUDY    43  38  82 NE9       30.07R
FREEPORT*      CLOUDY    42  42  97 NE8       30.07R FOG
ROCHELLE*      CLOUDY    41  40  95 NE10      30.06R FOG
DE KALB*       CLOUDY    40  38  91 N8        30.05R
$$

ILZ005-006-012>014-019>023-281200-
NORTHEAST ILLINOIS

CITY           SKY/WX    TMP DP  RH WIND       PRES   REMARKS
CHICAGO-OHARE  CLOUDY    42  34  73 N13       30.04R
CHICAGO-MIDWAY CLOUDY    41  35  79 N12G23    30.04R
AURORA         CLOUDY    42  37  82 N7        30.05R
LANSING*       CLOUDY    38  37  98 N13G18    30.03R WCI  30
JOLIET*        CLOUDY    43  37  81 N7        30.04R
WAUKEGAN       CLOUDY    39  36  89 N7        30.05R WCI  34
DUPAGE AIRPORT CLOUDY    41  38  89 N9        30.04R
WHEELING       CLOUDY    40  36  86 NE7       30.06R
MORRIS*        CLOUDY    42  38  84 CALM      30.04R
NORTHERLY ISL    N/A     38  36  92 N10         N/A  WCI  31
$$

LMZ740>746-281200-
SOUTHERN LAKE MICHIGAN

STATION/POSITION SKY/WX   TEMP    WIND        PRES    VSBY  WAVE
                          AIR SEA DIR/SP/G                  HT/PER
                          (F)     (DEG/KT/KT) (MB)    (MI)  (FT/S)
HARRISON CRIB              39     350/ 16/ 18   N/A
BURNHAM HARBOR             38     360/ 11/ 17   N/A
CALUMET HARBOR             38     340/ 13/ 18 1016.5R
BURNS HARBOR               38     360/ 11/ 15 1017.3R
MICHIGAN CITY              38     360/ 12/ 13   N/A
$$

ILZ025>027-034>036-040-047-049-050-058-095>099-281200-
WEST-CENTRAL ILLINOIS

CITY           SKY/WX    TMP DP  RH WIND       PRES   REMARKS
QUINCY         CLOUDY    49  47  93 NW5       30.03R
GALESBURG*     CLOUDY    47  46  99 N7        30.02R FOG
MACOMB*        CLOUDY    48  47  95 N5        30.05R
JACKSONVILLE*  CLOUDY    49  48  95 N3        30.02R FOG
PITTSFIELD*    CLOUDY    51  49  93 NW5       30.04R
$$

ILZ028>032-037-038-041>044-048-051>054-059>061-281200-
CENTRAL ILLINOIS

CITY           SKY/WX    TMP DP  RH WIND       PRES   REMARKS
PONTIAC        CLOUDY    42  41  98 N3        30.04R
BLOOMINGTON    CLOUDY    43  41  93 NE12      30.02R
DECATUR        CLOUDY    45  42  89 N10       30.00R
PEORIA         CLOUDY    47  43  86 NE7       30.03R
SPRINGFIELD    CLOUDY    50  48  93 NE10      30.02R FOG
TAYLORVILLE    NOT AVBL
$$

ILZ033-039-045-046-055>057-062-063-281200-
EAST-CENTRAL ILLINOIS

CITY           SKY/WX    TMP DP  RH WIND       PRES   REMARKS
CHAMPAIGN      CLOUDY    45  40  82 N7        30.00R
RANTOUL*       CLOUDY    45  41  87 N12       30.01R
MATTOON        CLOUDY    45  44  97 N13       29.97R
PARIS*         CLOUDY    44  43  95 N6        30.00R
$$

ILZ079-100>102-281200-
SOUTHWEST ILLINOIS

CITY           SKY/WX    TMP DP  RH WIND       PRES   REMARKS
BELLEVILLE     CLOUDY    53  53  99 N8        30.00R
CAHOKIA*       CLOUDY    54  49  83 N5        30.02R
SPARTA*        CLOUDY    52  50  93 N6        30.01R
$$

ILZ064>066-069>071-074>076-080>082-084>086-088>090-092>094-281200-
SOUTH-CENTRAL ILLINOIS

CITY           SKY/WX    TMP DP  RH WIND       PRES   REMARKS
CARBONDALE     CLOUDY    54  52  93 N9        29.98R
CAIRO*         CLOUDY    55  52  89 NW7       29.98R
EFFINGHAM*     CLOUDY    49  48  97 N7        30.00R FOG
MARION         CLOUDY    55  54  94 N8        29.98R
MT. VERNON     CLOUDY    53  50  89 VRB5      29.98R
CENTRALIA*     CLOUDY    53  51  92 N9        29.98R
SALEM*         CLOUDY    54  50  87 N12       29.98R FOG
$$

ILZ067-068-072-073-078-083-087-091-281200-
SOUTHEAST ILLINOIS

CITY           SKY/WX    TMP DP  RH WIND       PRES   REMARKS
LAWRENCEVILLE  CLOUDY    53  51  93 N15       29.96R FOG
FLORA*         CLOUDY    52  50  93 N10       29.97S FOG
FAIRFIELD*     CLOUDY    53  51  94 N6        29.95R
HARRISBURG*    CLOUDY    55  52  89 NW9       29.97R
ROBINSON*      CLOUDY    49  48  97 N13G18    29.97R FOG
CARMI*         CLOUDY    54  53  94 NW13      29.95R FOG
$$

ABBREVIATIONS USED IN REMARKS
   TC - TEMPERATURE IN CELSIUS
  WCI - WIND CHILL INDEX
   HX - HEAT INDEX
  VSB - VISIBILITY
$$





USA.gov is the U.S. government's official web portal to all federal, state and local government web resources and services.